| time (UTC) | temp C | wind direction | speed KPH | gust KPH | rain 1hr cm | rain 24hr cm | rain mn cm | humidity % | barometer mb |
| 20260508220055 | 17 | 360 | 1.6 | 6.4 | 0.00 | 0.00 | 0.00 | 56 | 1010.7 |
| 20260508214608 | 17 | 360 | 3.2 | 9.7 | 0.00 | 0.00 | 0.00 | 55 | 1010.7 |
| 20260508213057 | 17 | 360 | 1.6 | 9.7 | 0.00 | 0.00 | 0.00 | 54 | 1010.9 |
| 20260508211600 | 17 | 360 | 4.8 | 14.5 | 0.00 | 0.00 | 0.00 | 53 | 1010.9 |
| 20260508210055 | 17 | 360 | 4.8 | 16.1 | 0.00 | 0.00 | 0.00 | 52 | 1011.2 |
| 20260508204603 | 17 | 360 | 4.8 | 14.5 | 0.00 | 0.00 | 0.00 | 52 | 1011.4 |
| 20260508203057 | 17 | 360 | 6.4 | 17.7 | 0.00 | 0.00 | 0.00 | 50 | 1011.4 |
| 20260508201602 | 17 | 360 | 9.7 | 25.7 | 0.00 | 0.00 | 0.00 | 49 | 1011.6 |
| 20260508200057 | 18 | 360 | 9.7 | 22.5 | 0.00 | 0.00 | 0.00 | 48 | 1011.8 |
| 20260508194623 | 18 | 360 | 14.5 | 35.4 | 0.00 | 0.00 | 0.00 | 47 | 1011.8 |
| 20260508193106 | 18 | 360 | 16.1 | 32.2 | 0.00 | 0.00 | 0.00 | 45 | 1011.8 |
| 20260508191559 | 19 | 360 | 12.9 | 27.4 | 0.00 | 0.00 | 0.00 | 46 | 1012.2 |
| 20260508190057 | 20 | 360 | 9.7 | 25.7 | 0.00 | 0.00 | 0.00 | 46 | 1012.4 |
| 20260508184600 | 20 | 360 | 11.3 | 37.0 | 0.00 | 0.00 | 0.00 | 47 | 1012.3 |
| 20260508183055 | 19 | 360 | 16.1 | 35.4 | 0.00 | 0.00 | 0.00 | 46 | 1012.5 |
| 20260508181635 | 18 | 360 | 11.3 | 27.4 | 0.00 | 0.00 | 0.00 | 52 | 1012.7 |
| 20260508174603 | 18 | 360 | 6.4 | 27.4 | 0.00 | 0.00 | 0.00 | 50 | 1013.1 |
| 20260508173057 | 20 | 360 | 11.3 | 27.4 | 0.00 | 0.00 | 0.00 | 48 | 1013.2 |
| 20260508171602 | 20 | 360 | 8.0 | 29.0 | 0.00 | 0.00 | 0.00 | 49 | 1013.4 |
| 20260508170056 | 19 | 360 | 11.3 | 27.4 | 0.00 | 0.00 | 0.00 | 49 | 1013.7 |
| 20260508164559 | 18 | 360 | 9.7 | 22.5 | 0.00 | 0.00 | 0.00 | 52 | 1014.1 |
| 20260508163105 | 18 | 360 | 11.3 | 22.5 | 0.00 | 0.00 | 0.00 | 52 | 1014.2 |
| 20260508161605 | 17 | 360 | 11.3 | 32.2 | 0.00 | 0.00 | 0.00 | 52 | 1014.3 |
| 20260508160057 | 17 | 360 | 12.9 | 35.4 | 0.00 | 0.00 | 0.00 | 50 | 1014.5 |
| 20260508154559 | 18 | 360 | 11.3 | 32.2 | 0.00 | 0.00 | 0.00 | 51 | 1014.6 |
| 20260508153057 | 17 | 360 | 12.9 | 30.6 | 0.00 | 0.00 | 0.00 | 51 | 1014.6 |
| 20260508151609 | 17 | 360 | 8.0 | 17.7 | 0.00 | 0.00 | 0.00 | 55 | 1014.7 |
| 20260508150059 | 16 | 360 | 6.4 | 30.6 | 0.00 | 0.00 | 0.00 | 55 | 1014.7 |
| 20260508144555 | 16 | 360 | 14.5 | 30.6 | 0.00 | 0.00 | 0.00 | 53 | 1014.7 |
| 20260508143056 | 16 | 360 | 12.9 | 27.4 | 0.00 | 0.00 | 0.00 | 52 | 1014.9 |
| 20260508141601 | 16 | 360 | 8.0 | 24.1 | 0.00 | 0.00 | 0.00 | 55 | 1015.0 |
| 20260508140054 | 15 | 360 | 11.3 | 25.7 | 0.00 | 0.00 | 0.00 | 56 | 1015.1 |
| 20260508134559 | 13 | 360 | 9.7 | 19.3 | 0.00 | 0.00 | 0.00 | 60 | 1015.3 |
| 20260508133108 | 12 | 360 | 9.7 | 20.9 | 0.00 | 0.00 | 0.00 | 61 | 1015.4 |
| 20260508131556 | 11 | 360 | 3.2 | 20.9 | 0.00 | 0.00 | 0.00 | 65 | 1015.2 |
| 20260508130057 | 11 | 360 | 1.6 | 16.1 | 0.00 | 0.00 | 0.00 | 65 | 1015.3 |
| 20260508124557 | 10 | 0 | 9.7 | 19.3 | 0.00 | 0.00 | 0.00 | 68 | 1015.2 |
| 20260508123105 | 9 | 360 | 1.6 | 8.0 | 0.00 | 0.00 | 0.00 | 71 | 1015.2 |
| 20260508121557 | 8 | 0 | 3.2 | 12.9 | 0.00 | 0.00 | 0.00 | 71 | 1015.2 |
| 20260508120058 | 8 | 360 | 1.6 | 9.7 | 0.00 | 0.00 | 0.00 | 72 | 1015.1 |
| 20260508114556 | 8 | 360 | 3.2 | 12.9 | 0.00 | 0.00 | 0.00 | 72 | 1015.0 |
| 20260508113107 | 7 | 360 | 3.2 | 14.5 | 0.00 | 0.00 | 0.00 | 73 | 1014.9 |
| 20260508111602 | 7 | 0 | 3.2 | 9.7 | 0.00 | 0.00 | 0.00 | 73 | 1014.7 |
| 20260508104557 | 7 | 0 | 3.2 | 12.9 | 0.00 | 0.00 | 0.00 | 72 | 1014.6 |
| 20260508103058 | 7 | 215 | 3.2 | 14.5 | 0.00 | 0.00 | 0.00 | 72 | 1014.4 |
| 20260508101600 | 7 | 360 | 4.8 | 12.9 | 0.00 | 0.00 | 0.00 | 73 | 1014.4 |
| 20260508100058 | 7 | 186 | 3.2 | 11.3 | 0.00 | 0.00 | 0.00 | 72 | 1014.4 |
| 20260508094608 | 7 | 248 | 1.6 | 8.0 | 0.00 | 0.00 | 0.00 | 72 | 1014.5 |
| 20260508093104 | 7 | 204 | 1.6 | 9.7 | 0.00 | 0.00 | 0.00 | 72 | 1014.6 |
| 20260508091556 | 7 | 0 | 3.2 | 9.7 | 0.00 | 0.00 | 0.00 | 71 | 1014.7 |
| 20260508090057 | 7 | 360 | 1.6 | 9.7 | 0.00 | 0.00 | 0.00 | 70 | 1014.6 |
| 20260508084608 | 7 | 0 | 0.0 | 8.0 | 0.00 | 0.00 | 0.00 | 69 | 1014.7 |
| 20260508083103 | 7 | 360 | 0.0 | 6.4 | 0.00 | 0.00 | 0.00 | 68 | 1014.6 |
| 20260508081635 | 7 | 360 | 1.6 | 8.0 | 0.00 | 0.00 | 0.00 | 67 | 1014.6 |
| 20260508080054 | 7 | 360 | 1.6 | 9.7 | 0.00 | 0.00 | 0.00 | 66 | 1014.7 |
| 20260508074555 | 8 | 360 | 0.0 | 9.7 | 0.00 | 0.00 | 0.00 | 65 | 1014.5 |
| 20260508073104 | 8 | 360 | 3.2 | 12.9 | 0.00 | 0.00 | 0.00 | 65 | 1014.7 |
| 20260508071558 | 8 | 360 | 3.2 | 12.9 | 0.00 | 0.00 | 0.00 | 64 | 1014.8 |
| 20260508070106 | 8 | 360 | 4.8 | 14.5 | 0.00 | 0.00 | 0.00 | 63 | 1014.9 |
| 20260508064554 | 8 | 360 | 6.4 | 17.7 | 0.00 | 0.00 | 0.00 | 62 | 1015.0 |
| 20260508063059 | 8 | 360 | 6.4 | 14.5 | 0.00 | 0.00 | 0.00 | 61 | 1014.9 |
| 20260508061557 | 9 | 360 | 6.4 | 16.1 | 0.00 | 0.00 | 0.00 | 61 | 1015.0 |
| 20260508060106 | 9 | 360 | 8.0 | 17.7 | 0.00 | 0.00 | 0.00 | 61 | 1015.1 |
| 20260508054600 | 9 | 360 | 6.4 | 17.7 | 0.00 | 0.00 | 0.00 | 61 | 1015.1 |
| 20260508053058 | 9 | 360 | 6.4 | 17.7 | 0.00 | 0.00 | 0.00 | 61 | 1015.0 |
| 20260508051559 | 9 | 0 | 3.2 | 14.5 | 0.00 | 0.00 | 0.00 | 61 | 1015.0 |
| 20260508050057 | 10 | 360 | 4.8 | 12.9 | 0.00 | 0.00 | 0.00 | 61 | 1015.3 |
| 20260508044604 | 10 | 360 | 3.2 | 9.7 | 0.00 | 0.00 | 0.00 | 62 | 1015.2 |
| 20260508043107 | 10 | 0 | 0.0 | 6.4 | 0.00 | 0.00 | 0.00 | 62 | 1015.0 |
| 20260508041556 | 10 | 360 | 0.0 | 9.7 | 0.00 | 0.00 | 0.00 | 62 | 1014.9 |
| 20260508040101 | 10 | 360 | 1.6 | 4.8 | 0.00 | 0.00 | 0.00 | 61 | 1015.0 |
| 20260508034557 | 10 | 360 | 0.0 | 4.8 | 0.00 | 0.00 | 0.00 | 60 | 1015.1 |
| 20260508033055 | 10 | 360 | 0.0 | 8.0 | 0.00 | 0.00 | 0.00 | 59 | 1015.0 |
| 20260508031556 | 10 | 0 | 0.0 | 4.8 | 0.00 | 0.00 | 0.00 | 58 | 1015.2 |
| 20260508024559 | 11 | 360 | 1.6 | 9.7 | 0.00 | 0.00 | 0.00 | 56 | 1015.2 |
| 20260508023055 | 10 | 360 | 1.6 | 9.7 | 0.00 | 0.00 | 0.00 | 56 | 1014.8 |
| 20260508021553 | 11 | 360 | 1.6 | 8.0 | 0.00 | 0.00 | 0.00 | 55 | 1014.9 |
| 20260508020055 | 11 | 360 | 0.0 | 8.0 | 0.00 | 0.00 | 0.00 | 55 | 1014.9 |
| 20260508014555 | 11 | 360 | 1.6 | 8.0 | 0.00 | 0.00 | 0.00 | 55 | 1014.8 |
| 20260508013057 | 11 | 360 | 1.6 | 6.4 | 0.00 | 0.00 | 0.00 | 54 | 1015.1 |
| 20260508011610 | 11 | 360 | 0.0 | 3.2 | 0.00 | 0.00 | 0.00 | 53 | 1015.0 |
| 20260508010103 | 11 | 0 | 0.0 | 4.8 | 0.00 | 0.00 | 0.00 | 51 | 1015.0 |
| 20260508004607 | 12 | 360 | 0.0 | 4.8 | 0.00 | 0.00 | 0.00 | 49 | 1015.1 |
| 20260508003110 | 12 | 360 | 1.6 | 6.4 | 0.00 | 0.00 | 0.00 | 48 | 1015.0 |
| 20260508001601 | 13 | 360 | 0.0 | 4.8 | 0.00 | 0.00 | 0.00 | 46 | 1014.8 |
| 20260508000107 | 13 | 360 | 3.2 | 9.7 | 0.00 | 0.00 | 0.00 | 46 | 1014.8 |
| 20260507234607 | 13 | 360 | 1.6 | 8.0 | 0.00 | 0.00 | 0.00 | 45 | 1014.5 |
| 20260507233056 | 13 | 360 | 1.6 | 8.0 | 0.00 | 0.00 | 0.00 | 44 | 1014.7 |
| 20260507231609 | 14 | 360 | 3.2 | 12.9 | 0.00 | 0.00 | 0.00 | 44 | 1014.7 |
| 20260507230059 | 14 | 360 | 3.2 | 12.9 | 0.00 | 0.00 | 0.00 | 44 | 1014.7 |
| 20260507224601 | 15 | 360 | 4.8 | 14.5 | 0.00 | 0.00 | 0.00 | 41 | 1014.6 |
| 20260507223117 | 15 | 360 | 4.8 | 14.5 | 0.00 | 0.00 | 0.00 | 42 | 1014.7 |
| 20260507221558 | 15 | 360 | 4.8 | 14.5 | 0.00 | 0.00 | 0.00 | 43 | 1014.9 |